TimeCDT,TemperatureF,Dew PointF,Humidity,Sea Level PressureIn,VisibilityMPH,Wind Direction,Wind SpeedMPH,Gust SpeedMPH,PrecipitationIn,Events,Conditions,WindDirDegrees,DateUTC
12:15 AM,59.2,59.0,99,29.90,10.0,ENE,6.9,-,N/A,,Overcast,70,2013-10-04 05:15:00
12:35 AM,59.0,59.0,100,29.91,10.0,NE,4.6,-,N/A,,Overcast,50,2013-10-04 05:35:00
12:55 AM,58.1,58.1,100,29.90,10.0,ENE,5.8,-,N/A,,Overcast,60,2013-10-04 05:55:00
1:15 AM,57.4,57.4,100,29.89,10.0,NE,4.6,-,N/A,,Overcast,40,2013-10-04 06:15:00
1:35 AM,57.2,57.2,100,29.89,10.0,ENE,4.6,-,N/A,,Overcast,60,2013-10-04 06:35:00
1:55 AM,56.8,56.8,100,29.90,10.0,ENE,4.6,-,N/A,,Overcast,60,2013-10-04 06:55:00
2:15 AM,56.7,56.7,100,29.90,10.0,NE,4.6,-,N/A,,Overcast,50,2013-10-04 07:15:00
2:35 AM,56.7,56.7,100,29.90,10.0,NNE,5.8,-,N/A,,Overcast,20,2013-10-04 07:35:00
2:55 AM,56.7,56.7,100,29.91,10.0,NE,4.6,-,N/A,,Overcast,40,2013-10-04 07:55:00
3:15 AM,56.7,56.7,100,29.91,10.0,NNE,4.6,-,N/A,,Overcast,30,2013-10-04 08:15:00
3:35 AM,56.7,56.7,100,29.92,10.0,East,3.5,-,N/A,,Overcast,80,2013-10-04 08:35:00
3:55 AM,56.8,56.8,100,29.91,10.0,NNE,3.5,-,N/A,,Overcast,30,2013-10-04 08:55:00
4:15 AM,56.8,56.8,100,29.92,10.0,Calm,Calm,-,N/A,,Overcast,0,2013-10-04 09:15:00
4:35 AM,57.2,57.2,100,29.93,10.0,Calm,Calm,-,N/A,,Overcast,0,2013-10-04 09:35:00
4:55 AM,57.2,57.2,100,29.93,10.0,Calm,Calm,-,N/A,,Overcast,0,2013-10-04 09:55:00
5:15 AM,57.2,57.2,100,29.94,7.0,NNE,3.5,-,N/A,,Overcast,20,2013-10-04 10:15:00
5:35 AM,56.8,56.8,100,29.94,4.0,NE,4.6,-,N/A,,Overcast,40,2013-10-04 10:35:00
5:55 AM,56.7,56.7,100,29.93,2.0,ENE,4.6,-,N/A,,Overcast,60,2013-10-04 10:55:00
6:15 AM,56.7,56.7,100,29.94,1.5,NE,4.6,-,N/A,,Light Drizzle,50,2013-10-04 11:15:00
6:35 AM,56.8,56.8,100,29.95,2.0,NE,5.8,-,N/A,,Overcast,40,2013-10-04 11:35:00
6:55 AM,56.8,56.8,100,29.95,2.5,NE,5.8,-,N/A,,Overcast,50,2013-10-04 11:55:00
7:15 AM,57.0,57.0,100,29.96,2.0,East,6.9,-,N/A,,Overcast,80,2013-10-04 12:15:00
7:35 AM,57.2,57.2,100,29.97,1.8,ENE,4.6,-,N/A,,Overcast,70,2013-10-04 12:35:00
7:55 AM,56.8,56.8,100,29.96,1.2,ENE,4.6,-,N/A,,Drizzle,60,2013-10-04 12:55:00
8:15 AM,57.0,57.0,100,29.95,2.0,ENE,10.4,-,N/A,,Overcast,60,2013-10-04 13:15:00
8:35 AM,57.2,57.2,100,29.96,3.0,ENE,8.1,-,N/A,Rain,Rain,60,2013-10-04 13:35:00
8:55 AM,57.2,57.2,100,29.95,5.0,NE,9.2,-,N/A,,Overcast,50,2013-10-04 13:55:00
9:15 AM,57.2,57.2,100,29.94,7.0,ENE,11.5,17.3,N/A,,Overcast,60,2013-10-04 14:15:00
9:35 AM,57.4,57.4,100,29.95,10.0,NE,4.6,-,N/A,,Overcast,50,2013-10-04 14:35:00
9:55 AM,57.7,57.7,100,29.96,10.0,East,5.8,-,N/A,,Overcast,100,2013-10-04 14:55:00
10:15 AM,58.1,58.1,100,29.95,10.0,ENE,6.9,-,N/A,,Overcast,70,2013-10-04 15:15:00
10:35 AM,58.3,58.3,100,29.95,10.0,East,8.1,-,N/A,,Overcast,80,2013-10-04 15:35:00
10:55 AM,58.5,58.5,100,29.95,10.0,NE,6.9,-,N/A,,Overcast,40,2013-10-04 15:55:00
11:15 AM,58.5,58.5,100,29.96,10.0,ENE,10.4,-,N/A,,Overcast,60,2013-10-04 16:15:00
11:35 AM,59.0,58.5,98,29.97,10.0,East,5.8,-,N/A,,Overcast,80,2013-10-04 16:35:00
11:55 AM,59.0,58.3,97,29.98,10.0,East,8.1,-,N/A,,Overcast,90,2013-10-04 16:55:00
12:15 PM,59.0,58.5,98,29.99,10.0,East,5.8,-,N/A,,Overcast,90,2013-10-04 17:15:00
12:35 PM,59.0,58.6,99,30.00,10.0,ESE,4.6,-,N/A,,Overcast,110,2013-10-04 17:35:00
12:55 PM,59.2,59.0,99,29.99,10.0,East,4.6,-,N/A,,Overcast,90,2013-10-04 17:55:00
1:15 PM,59.5,59.2,99,30.00,10.0,East,4.6,-,N/A,,Overcast,90,2013-10-04 18:15:00
1:35 PM,59.2,59.0,99,29.99,10.0,East,8.1,-,N/A,,Overcast,90,2013-10-04 18:35:00
1:55 PM,59.9,59.7,99,29.97,10.0,East,9.2,-,N/A,,Overcast,80,2013-10-04 18:55:00
2:15 PM,59.9,59.4,98,29.96,10.0,ENE,10.4,-,N/A,,Overcast,70,2013-10-04 19:15:00
2:35 PM,59.7,59.5,99,29.95,10.0,ENE,10.4,-,N/A,,Overcast,70,2013-10-04 19:35:00
2:55 PM,60.3,59.7,98,29.95,10.0,East,10.4,16.1,N/A,,Overcast,80,2013-10-04 19:55:00
3:15 PM,59.9,59.4,98,29.96,10.0,ENE,9.2,-,N/A,,Overcast,60,2013-10-04 20:15:00
3:35 PM,59.9,59.4,98,29.96,10.0,East,9.2,-,N/A,,Overcast,80,2013-10-04 20:35:00
3:55 PM,59.9,59.4,98,29.96,10.0,ENE,6.9,-,N/A,,Overcast,60,2013-10-04 20:55:00
4:15 PM,59.9,59.2,97,29.96,10.0,ENE,6.9,-,N/A,,Overcast,60,2013-10-04 21:15:00
4:35 PM,59.9,59.2,97,29.96,10.0,ENE,6.9,-,N/A,,Overcast,70,2013-10-04 21:35:00
4:55 PM,59.9,59.2,97,29.95,10.0,East,9.2,-,N/A,,Overcast,80,2013-10-04 21:55:00
5:15 PM,59.9,59.0,97,29.95,10.0,East,13.8,-,N/A,,Overcast,80,2013-10-04 22:15:00
5:35 PM,59.9,59.0,97,29.97,10.0,East,8.1,-,N/A,,Overcast,90,2013-10-04 22:35:00
5:55 PM,59.4,58.6,97,29.96,10.0,East,9.2,-,N/A,,Overcast,90,2013-10-04 22:55:00
6:15 PM,59.0,58.6,99,29.95,7.0,East,10.4,18.4,N/A,,Overcast,80,2013-10-04 23:15:00
6:35 PM,59.0,58.6,99,29.93,7.0,East,11.5,18.4,N/A,,Overcast,80,2013-10-04 23:35:00
6:55 PM,58.6,58.6,100,29.93,5.0,East,11.5,-,N/A,,Overcast,80,2013-10-04 23:55:00
7:15 PM,58.5,58.5,100,29.96,5.0,Calm,Calm,-,N/A,,Overcast,0,2013-10-05 00:15:00
7:35 PM,58.5,58.5,100,29.94,2.5,ENE,9.2,-,N/A,,Overcast,70,2013-10-05 00:35:00
7:55 PM,58.3,58.3,100,29.96,2.0,East,8.1,-,N/A,,Overcast,90,2013-10-05 00:55:00
8:15 PM,58.1,58.1,100,29.97,2.0,East,10.4,-,N/A,Rain,Light Rain,90,2013-10-05 01:15:00
8:35 PM,58.1,58.1,100,29.96,2.5,East,5.8,-,N/A,Rain,Light Rain,80,2013-10-05 01:35:00
8:55 PM,58.1,58.1,100,29.96,2.5,ENE,8.1,-,N/A,Rain,Light Rain,70,2013-10-05 01:55:00
9:15 PM,58.1,58.1,100,29.96,2.5,East,6.9,-,0.01,Rain,Light Rain,80,2013-10-05 02:15:00
9:35 PM,57.7,57.7,100,29.97,3.0,East,6.9,17.3,0.02,Rain,Rain,80,2013-10-05 02:35:00
9:55 PM,57.6,57.6,100,29.96,3.0,East,11.5,18.4,0.07,Rain-Thunderstorm,Heavy Thunderstorms and Rain,80,2013-10-05 02:55:00
10:15 PM,57.4,57.4,100,29.95,5.0,East,11.5,-,0.03,Rain-Thunderstorm,Thunderstorms and Rain,90,2013-10-05 03:15:00
10:35 PM,57.2,57.2,100,29.95,0.8,East,6.9,18.4,0.26,Rain-Thunderstorm,Heavy Thunderstorms and Rain,80,2013-10-05 03:35:00
10:55 PM,57.4,57.4,100,29.96,4.0,ESE,5.8,16.1,0.35,Rain-Thunderstorm,Heavy Thunderstorms and Rain,120,2013-10-05 03:55:00
11:15 PM,57.4,57.4,100,29.95,7.0,NNW,5.8,9.2,0.03,Rain-Thunderstorm,Light Thunderstorms and Rain,340,2013-10-05 04:15:00
11:35 PM,57.4,57.4,100,30.04,3.0,WNW,13.8,32.2,0.22,Rain-Thunderstorm,Heavy Thunderstorms and Rain,300,2013-10-05 04:35:00
11:55 PM,57.2,57.2,100,29.94,2.5,NE,15.0,20.7,0.54,Rain-Thunderstorm,Heavy Thunderstorms and Rain,40,2013-10-05 04:55:00